EN

Hourly Weather Abdul-Gazy

Today, 12 June, Saturday

Time Temperature Precipitation Wind Pressure Humidity
00:00 +23°C° 0 mm 1 mps 755 mmHg 72%
01:00 +23°C° 0 mm 1 mps 755 mmHg 73%
02:00 +21°C° 0 mm 2 mps 755 mmHg 75%
03:00 +21°C° 0 mm 2 mps 755 mmHg 76%
04:00 +21°C° 0 mm 2 mps 755 mmHg 74%
05:00 +23°C° 0 mm 1 mps 755 mmHg 72%
06:00 +23°C° 0 mm 1 mps 756 mmHg 70%
07:00 +25°C° 0 mm 1 mps 756 mmHg 64%
08:00 +26°C° 0 mm 1 mps 756 mmHg 57%
09:00 +28°C° 0 mm 1 mps 756 mmHg 51%
10:00 +29°C° 0 mm 1 mps 755 mmHg 45%
11:00 +30°C° 0 mm 2 mps 755 mmHg 40%
12:00 +31°C° 0 mm 3 mps 755 mmHg 35%
13:00 +33°C° 0 mm 3 mps 755 mmHg 33%
14:00 +33°C° 0 mm 3 mps 754 mmHg 31%
15:00 +34°C° 0 mm 3 mps 754 mmHg 30%
16:00 +33°C° 0 mm 4 mps 754 mmHg 31%
17:00 +33°C° 0 mm 4 mps 754 mmHg 32%
18:00 +32°C° 0 mm 5 mps 754 mmHg 33%
19:00 +30°C° 0 mm 5 mps 754 mmHg 37%
20:00 +28°C° 0 mm 4 mps 755 mmHg 40%
21:00 +27°C° 0 mm 4 mps 755 mmHg 44%
22:00 +26°C° 0 mm 3 mps 755 mmHg 49%
23:00 +25°C° 0 mm 2 mps 755 mmHg 54%

Tomorrow, 13 June, Sunday

Time Temperature Precipitation Wind Pressure Humidity
00:00 +24°C° 0 mm 1 mps 755 mmHg 59%
01:00 +24°C° 0 mm 1 mps 755 mmHg 61%
02:00 +23°C° 0 mm 1 mps 755 mmHg 62%
03:00 +23°C° 0 mm 1 mps 755 mmHg 63%
04:00 +23°C° 0 mm 1 mps 755 mmHg 62%
05:00 +24°C° 0 mm 1 mps 755 mmHg 60%
06:00 +24°C° 0 mm 2 mps 755 mmHg 59%
07:00 +25°C° 0 mm 1 mps 755 mmHg 55%
08:00 +26°C° 0 mm 1 mps 755 mmHg 50%
09:00 +27°C° 0 mm 1 mps 755 mmHg 46%
10:00 +28°C° 0 mm 1 mps 755 mmHg 43%
11:00 +29°C° 0 mm 2 mps 755 mmHg 41%
12:00 +29°C° 0 mm 2 mps 754 mmHg 38%
13:00 +29°C° 0.1 mm 3 mps 754 mmHg 42%
14:00 +28°C° 0.1 mm 3 mps 754 mmHg 46%
15:00 +27°C° 0.1 mm 4 mps 754 mmHg 50%
16:00 +27°C° 0.1 mm 3 mps 754 mmHg 52%
17:00 +26°C° 0.1 mm 2 mps 754 mmHg 54%
18:00 +26°C° 0.1 mm 2 mps 755 mmHg 56%
19:00 +25°C° 0.1 mm 2 mps 755 mmHg 61%
20:00 +24°C° 0.1 mm 3 mps 755 mmHg 65%
21:00 +22°C° 0.1 mm 3 mps 755 mmHg 70%
22:00 +21°C° 0.8 mm 3 mps 755 mmHg 76%
23:00 +21°C° 0.8 mm 3 mps 755 mmHg 82%

Day after tomorrow, 14 June, Monday

Time Temperature Precipitation Wind Pressure Humidity
00:00 +20°C° 0.8 mm 3 mps 755 mmHg 88%
01:00 +20°C° 0.2 mm 2 mps 755 mmHg 87%
02:00 +20°C° 0.2 mm 2 mps 755 mmHg 86%
03:00 +20°C° 0.2 mm 2 mps 755 mmHg 84%
04:00 +21°C° 0 mm 2 mps 755 mmHg 83%
05:00 +22°C° 0 mm 1 mps 755 mmHg 81%
06:00 +22°C° 0 mm 1 mps 755 mmHg 79%
07:00 +23°C° 0 mm 1 mps 755 mmHg 72%
08:00 +25°C° 0 mm 1 mps 755 mmHg 66%
09:00 +24°C° 0 mm 0 mps 755 mmHg 59%
10:00 +27°C° 0 mm 1 mps 755 mmHg 54%
11:00 +28°C° 0 mm 2 mps 755 mmHg 50%
12:00 +29°C° 0 mm 2 mps 754 mmHg 45%
13:00 +29°C° 0 mm 2 mps 754 mmHg 45%
14:00 +29°C° 0 mm 2 mps 754 mmHg 44%
15:00 +30°C° 0 mm 2 mps 754 mmHg 44%
16:00 +30°C° 0 mm 2 mps 754 mmHg 43%
17:00 +30°C° 0 mm 2 mps 754 mmHg 42%
18:00 +30°C° 0 mm 2 mps 754 mmHg 42%
19:00 +29°C° 0 mm 3 mps 754 mmHg 47%
20:00 +27°C° 0 mm 3 mps 754 mmHg 52%
21:00 +26°C° 0 mm 4 mps 754 mmHg 57%
22:00 +25°C° 0 mm 4 mps 754 mmHg 60%
23:00 +25°C° 0 mm 4 mps 753 mmHg 62%

15 June, Tuesday

Time Temperature Precipitation Wind Pressure Humidity
00:00 +23°C° 0 mm 4 mps 753 mmHg 65%
01:00 +24°C° 0 mm 3 mps 753 mmHg 67%
02:00 +22°C° 0 mm 3 mps 753 mmHg 69%
03:00 +22°C° 0 mm 3 mps 753 mmHg 71%
04:00 +22°C° 0 mm 3 mps 753 mmHg 71%
05:00 +22°C° 0 mm 3 mps 753 mmHg 71%
06:00 +22°C° 0 mm 3 mps 753 mmHg 71%
07:00 +25°C° 0.3 mm 3 mps 753 mmHg 66%
08:00 +26°C° 0.3 mm 2 mps 752 mmHg 62%
09:00 +27°C° 0.3 mm 2 mps 752 mmHg 57%
10:00 +28°C° 0.3 mm 3 mps 752 mmHg 53%
11:00 +29°C° 0.3 mm 3 mps 752 mmHg 50%
12:00 +30°C° 0.3 mm 4 mps 752 mmHg 46%
13:00 +30°C° 0.1 mm 3 mps 752 mmHg 45%
14:00 +31°C° 0.1 mm 3 mps 752 mmHg 44%
15:00 +31°C° 0.1 mm 3 mps 752 mmHg 43%
16:00 +31°C° 0 mm 2 mps 752 mmHg 43%
17:00 +31°C° 0 mm 2 mps 752 mmHg 43%
18:00 +31°C° 0 mm 2 mps 752 mmHg 43%
19:00 +30°C° 0 mm 2 mps 753 mmHg 47%
20:00 +29°C° 0 mm 2 mps 753 mmHg 51%
21:00 +27°C° 0 mm 3 mps 753 mmHg 55%
22:00 +27°C° 0 mm 2 mps 753 mmHg 58%
23:00 +26°C° 0 mm 2 mps 753 mmHg 60%

16 June, Wednesday

Time Temperature Precipitation Wind Pressure Humidity
00:00 +26°C° 0 mm 2 mps 753 mmHg 62%
01:00 +25°C° 0 mm 2 mps 753 mmHg 63%
02:00 +25°C° 0 mm 2 mps 753 mmHg 65%
03:00 +24°C° 0 mm 2 mps 754 mmHg 66%
04:00 +25°C° 0 mm 1 mps 754 mmHg 64%
05:00 +25°C° 0 mm 1 mps 754 mmHg 63%
06:00 +26°C° 0 mm 1 mps 754 mmHg 61%
07:00 +27°C° 0 mm 2 mps 754 mmHg 55%
08:00 +29°C° 0 mm 2 mps 754 mmHg 50%
09:00 +30°C° 0 mm 3 mps 754 mmHg 44%
10:00 +33°C° 0 mm 3 mps 753 mmHg 41%
11:00 +34°C° 0 mm 4 mps 753 mmHg 38%
12:00 +35°C° 0 mm 4 mps 753 mmHg 36%
13:00 +36°C° 0 mm 5 mps 752 mmHg 34%
14:00 +36°C° 0 mm 5 mps 752 mmHg 33%
15:00 +36°C° 0 mm 6 mps 752 mmHg 31%
16:00 +36°C° 0 mm 6 mps 752 mmHg 33%
17:00 +35°C° 0 mm 6 mps 752 mmHg 34%
18:00 +34°C° 0 mm 6 mps 752 mmHg 36%
19:00 +32°C° 0 mm 5 mps 752 mmHg 40%
20:00 +30°C° 0 mm 5 mps 753 mmHg 45%
21:00 +28°C° 0 mm 4 mps 753 mmHg 50%
22:00 +27°C° 0 mm 3 mps 753 mmHg 54%
23:00 +26°C° 0 mm 3 mps 753 mmHg 58%

17 June, Thursday

Time Temperature Precipitation Wind Pressure Humidity
00:00 +26°C° 0 mm 2 mps 753 mmHg 62%
01:00 +25°C° 0 mm 2 mps 753 mmHg 65%
02:00 +25°C° 0 mm 2 mps 753 mmHg 67%
03:00 +24°C° 0 mm 1 mps 753 mmHg 70%
04:00 +25°C° 0 mm 2 mps 752 mmHg 68%
05:00 +25°C° 0 mm 2 mps 752 mmHg 67%
06:00 +26°C° 0 mm 2 mps 752 mmHg 66%
07:00 +28°C° 0 mm 3 mps 752 mmHg 57%
08:00 +30°C° 0 mm 4 mps 751 mmHg 48%
09:00 +33°C° 0 mm 5 mps 751 mmHg 39%
10:00 +34°C° 0 mm 5 mps 750 mmHg 35%
11:00 +36°C° 0 mm 5 mps 750 mmHg 32%
12:00 +37°C° 0 mm 5 mps 749 mmHg 29%
13:00 +39°C° 0 mm 5 mps 749 mmHg 29%
14:00 +38°C° 0 mm 4 mps 749 mmHg 29%
15:00 +38°C° 0 mm 3 mps 749 mmHg 29%
16:00 +37°C° 0.4 mm 4 mps 749 mmHg 34%
17:00 +35°C° 0.4 mm 4 mps 750 mmHg 38%
18:00 +33°C° 0.4 mm 5 mps 750 mmHg 43%
19:00 +30°C° 0.9 mm 6 mps 751 mmHg 56%
20:00 +27°C° 0.9 mm 6 mps 752 mmHg 68%
21:00 +23°C° 0.9 mm 7 mps 753 mmHg 81%
22:00 +23°C° 0 mm 7 mps 753 mmHg 81%
23:00 +23°C° 0 mm 8 mps 754 mmHg 81%
Show more